This demonstration page uses our WeatherBlox Daily Observations layout. Learn more.

39.08367, -84.50855

Hourly Observations for May 31, 2019

Temp ( °F °C ) Dew Point ( °F °C ) Humidity (%) Winds ( mph kmh ) Pressure ( in mb ) Visibility ( mi km ) Precip ( " mm )
12:53 am 00:53 Mostly Clear with Light Rain 63 17.2 60 15.6 90 90 Calm 29.83 1010 10 16.09344 0.001 0.001
1:53 am 01:53 Clear 62 16.7 60 15.6 93 93 Calm 29.83 1010 10 16.09344 0.001 0.001
2:53 am 02:53 Partly Cloudy 62 16.7 60 15.6 93 93 N 3 6 29.83 1010 10 16.09344 0 0
3:16 am 03:16 Cloudy 65 18.3 61 16.1 87 87 NW 8 13 29.85 1011 10 16.09344 0 0
3:28 am 03:28 Mostly Cloudy 65 18.3 60 15.6 84 84 N 7 11 29.83 1010 10 16.09344 0 0
3:53 am 03:53 Partly Cloudy 63 17.2 60 15.6 90 90 E 5 7 29.8 1009 10 16.09344 0 0
4:53 am 04:53 Clear 59 15 58 14.4 96 96 S 5 7 29.83 1010 10 16.09344 0 0
5:53 am 05:53 Partly Cloudy 62 16.7 60 15.6 93 93 Calm 29.83 1010 10 16.09344 0 0
6:53 am 06:53 Mostly Cloudy 62 16.7 61 16.1 96 96 SE 3 6 29.85 1011 10 16.09344 0 0
7:23 am 07:23 Mostly Cloudy 65 18.3 62 16.7 90 90 N 8 13 29.88 1012 10 16.09344 0 0
7:53 am 07:53 Cloudy 65 18.3 61 16.1 87 87 NNE 5 7 29.85 1011 10 16.09344 0 0
8:08 am 08:08 Mostly Cloudy 65 18.3 61 16.1 87 87 E 3 6 29.88 1012 10 16.09344 0 0
8:53 am 08:53 Cloudy 66 18.9 60 15.6 81 81 Calm 29.88 1012 10 16.09344 0 0
9:53 am 09:53 Cloudy with Rain 64 17.8 61 16.1 90 90 VRB 6 9 29.88 1012 5 8.04672 0.19 4.826
10:53 am 10:53 Mostly Sunny 66 18.9 62 16.7 87 87 SW 3 6 29.88 1012 10 16.09344 0.02 0.508
11:53 am 11:53 Partly Cloudy 68 20 62 16.7 81 81 WNW 5 7 29.88 1012 10 16.09344 0 0
12:53 pm 12:53 Sunny 73 22.8 62 16.7 69 69 NNW 6 9 29.88 1012 10 16.09344 0 0
1:53 pm 13:53 Mostly Sunny 75 23.9 61 16.1 62 62 WNW 7 11 29.85 1011 10 16.09344 0 0
2:53 pm 14:53 Mostly Cloudy 75 23.9 59 15 58 58 WNW 6 9 29.88 1012 10 16.09344 0 0
3:53 pm 15:53 Mostly Cloudy 75 23.9 58 14.4 55 55 W 5 7 29.88 1012 10 16.09344 0 0
4:53 pm 16:53 Mostly Sunny 72 22.2 63 17.2 73 73 ENE 3 6 29.88 1012 10 16.09344 0.001 0.001
5:53 pm 17:53 Sunny 74 23.3 64 17.8 71 71 VRB 3 6 29.85 1011 10 16.09344 0.001 0.001
6:53 pm 18:53 Sunny 72 22.2 66 18.9 82 82 S 3 6 29.85 1011 10 16.09344 0 0
7:53 pm 19:53 Sunny 72 22.2 65 18.3 79 79 Calm 29.85 1011 10 16.09344 0 0
8:53 pm 20:53 Sunny 67 19.4 64 17.8 91 91 S 3 6 29.85 1011 10 16.09344 0 0
9:53 pm 21:53 Clear 66 18.9 64 17.8 93 93 Calm 29.88 1012 10 16.09344 0 0
10:53 pm 22:53 Clear 63 17.2 62 16.7 97 97 Calm 29.88 1012 10 16.09344 0 0
11:24 pm 23:24 Clear with Mist and Fog 62 16.7 61 16.1 96 96 Calm 29.91 1013 1.5 2.414016 0 0
11:34 pm 23:34 Clear with Mist and Fog 61 16.1 61 16.1 100 100 Calm 29.91 1013 3 4.828032 0 0
11:39 pm 23:39 Clear with Mist and Fog 62 16.7 61 16.1 96 96 Calm 29.91 1013 1.75 2.816352 0 0
11:50 pm 23:50 Mostly Cloudy with Fog 61 16 61 16 100 100 Calm 29.91 1013 0.5 0.804672 0 0
11:53 pm 23:53 Mostly Cloudy with Fog 61 16.1 60 15.6 97 97 Calm 29.88 1012 0.25 0.402336 0 0

Powered by AerisWeather